{"data":{"norad_id":25397,"epoch":"2026-05-24T22:54:20.693952Z","epoch_age_seconds":75417,"freshness":"FRESH","line1":"1 25397U 98043D   26144.95440618  .00000048  00000+0  40816-4 0  9998","line2":"2 25397  99.0063 137.1282 0000371 333.0816  27.0342 14.24423132448026","mean_motion":14.24423132,"eccentricity":3.71e-5,"inclination_deg":99.0063,"raan_deg":137.1282,"arg_perigee_deg":333.0816,"mean_anomaly_deg":27.0342,"bstar":4.0816e-5,"rev_number":44802,"period_min":101.09355623691,"perigee_km":810.16613854163,"apogee_km":810.69953042335,"semimajor_km":7188.5698344825,"source":"CELESTRAK","updated_at":"2026-05-25T13:38:23.278902Z"}}